Location: Crescent
(42.8242°N, 73.7329°W)
Time: 15:40:40
(UTC+00:00)

Vanguard 2 - All Passes

Search period start: 10 February 2026 00:00
Search period end: 20 February 2026 00:00
Orbit: 553 x 2897 km, 32.9° (Epoch: 9 February)

Date Brightness Start Highest point End Pass type
(mag) Time Alt. Az. Time Alt. Az. Time Alt. Az.
10 Feb - 13:13:58 10° SSW 13:16:20 15° SSE 13:18:53 10° SE daylight
10 Feb - 15:19:31 10° SW 15:23:17 27° S 15:28:18 10° ESE daylight
10 Feb - 17:26:24 10° WSW 17:30:52 24° S 17:37:06 10° SE daylight
10 Feb - 19:36:25 10° SW 19:39:10 12° SSW 19:42:20 10° S daylight
11 Feb - 13:25:20 10° SSW 13:28:06 18° SSE 13:31:07 10° ESE daylight
11 Feb - 15:31:26 10° WSW 15:35:08 26° S 15:40:02 10° SE daylight
11 Feb - 17:38:44 10° WSW 17:42:47 19° SSW 17:48:08 10° SSE daylight
12 Feb - 13:36:54 10° SW 13:39:53 20° S 13:43:11 10° ESE daylight
12 Feb - 15:43:24 10° WSW 15:47:00 24° S 15:51:39 10° SE daylight
12 Feb - 17:51:25 10° SW 17:54:41 15° SSW 17:58:43 10° SSE daylight
13 Feb - 11:43:27 10° S 11:44:42 11° SSE 11:45:56 10° SE daylight
13 Feb - 13:48:36 10° SW 13:51:41 22° S 13:55:06 10° ESE daylight
13 Feb - 15:55:30 10° WSW 15:58:51 20° S 16:03:07 10° SE daylight
13 Feb - 18:05:14 10° SSW 18:06:36 11° SSW 18:08:04 10° S daylight
14 Feb - 11:54:09 10° SSW 11:56:31 14° SSE 11:58:43 10° SE daylight
14 Feb - 14:00:24 10° SW 14:03:31 22° S 14:06:57 10° SE daylight
14 Feb - 16:07:46 10° SW 16:10:44 17° SSW 16:14:20 10° SSE daylight
15 Feb - 12:05:26 10° SSW 12:08:19 17° S 12:11:00 10° SE daylight
15 Feb - 14:12:18 10° SW 14:15:20 21° S 14:18:41 10° SE daylight
15 Feb - 16:20:23 10° SW 16:22:36 13° SSW 16:25:07 10° SSE daylight
16 Feb - 10:11:34 10° S 10:12:53 11° SSE 10:14:08 10° SSE visible
16 Feb - 12:16:57 10° SW 12:20:08 20° S 12:23:04 10° SE daylight
16 Feb - 14:24:19 10° SW 14:27:10 19° S 14:30:17 10° SE daylight
17 Feb - 10:21:47 10° SSW 10:24:45 15° SSE 10:27:16 10° SE visible
17 Feb - 12:28:38 10° SW 12:31:57 21° S 12:35:01 10° SE daylight
17 Feb - 14:36:29 10° SW 14:39:00 16° SSW 14:41:42 10° SSE daylight
18 Feb - 10:32:49 10° SSW 10:36:36 18° S 10:39:41 10° SE visible
18 Feb - 12:40:25 10° SW 12:43:46 22° S 12:46:52 10° SE daylight
18 Feb - 14:48:56 10° SW 14:50:48 13° SSW 14:52:45 10° SSE daylight
19 Feb - 08:38:04 10° S 08:40:48 12° SSE 08:43:09 10° SE visible
19 Feb - 10:44:10 10° SW 10:48:28 22° S 10:51:51 10° ESE visible
19 Feb - 12:52:18 10° WSW 12:55:35 21° S 12:58:36 10° SE daylight
